User: anonymous   Login
Location: Demmingen
(48.6757°N, 10.4375°E)
Time: 11:17:45
(UTC+00:00)
Language:

SL-27 R/B - Orbit

View from above orbital plane
View from above orbital plane
View from above satellite
View from above satellite

Ground track
Ground track

The orbit data is extracted from the following two-line orbital elements,

1 40354U 14084B   24201.20980879  .00091412  00000-0  47071-3 0  9994
2 40354  74.7210 139.5756 0017702 265.3861  94.5350 15.80588856539594
Epoch (UTC): 19 July 2024 05:02:07
Eccentricity: 0.0017702
inclination: 74.7210°
perigee height: 317 km
apogee height: 340 km
right ascension of ascending node: 139.5756°
argument of perigee: 265.3861°
revolutions per day: 15.80588856
mean anomaly at epoch: 94.5350°
orbit number at epoch: 53959

The dashed part of the orbit path shows where the satellite is in the earth's shadow,  

DLR